This demonstration page uses our WeatherBlox Daily Observations layout. Learn more.

Hourly Observations for December 10, 2019

Temp ( °F °C ) Dew Point ( °F °C ) Humidity (%) Winds ( mph kmh ) Pressure ( in mb ) Visibility ( mi km ) Precip ( " mm )
12:15 am 00:15 Clear 26 -3.6 18 -7.6 74 74 W 10 17 30.18 1022 10 16.0934 0 0
12:35 am 00:35 Clear 26 -3.5 18 -7.6 74 74 W 10 17 30.18 1022 10 16.0934 0 0
12:55 am 00:55 Clear 25 -4.1 18 -8 75 75 WSW 10 17 30.18 1022 10 16.0934 0 0
1:15 am 01:15 Clear 24 -4.7 18 -7.9 79 79 W 9 15 30.19 1022 10 16.0934 0 0
1:35 am 01:35 Clear 24 -4.6 18 -7.9 78 78 W 10 17 30.2 1023 10 16.0934 0 0
1:55 am 01:55 Clear 24 -4.3 18 -7.6 78 78 W 8 13 30.2 1023 10 16.0934 0 0
2:15 am 02:15 Clear 24 -4.5 18 -7.7 79 79 W 8 13 30.21 1023 10 16.0934 0 0
2:35 am 02:35 Clear 25 -4.1 19 -7.5 77 77 WNW 6 9 30.2 1023 10 16.0934 0 0
2:55 am 02:55 Clear 23 -5.1 18 -7.6 83 83 WNW 5 7 30.22 1024 10 16.0934 0 0
3:15 am 03:15 Clear 25 -4 20 -6.5 83 83 N 5 7 30.22 1024 10 16.0934 0 0
3:35 am 03:35 Clear 24 -4.2 20 -6.6 84 84 Calm 30.24 1024 10 16.0934 0 0
3:55 am 03:55 Clear 23 -4.9 19 -7 85 85 Calm 30.25 1024 10 16.0934 0 0
4:15 am 04:15 Clear 23 -5.2 19 -7 87 87 N 3 6 30.27 1025 10 16.0934 0 0
4:35 am 04:35 Clear 22 -5.7 19 -7.1 90 90 NW 3 6 30.28 1025 10 16.0934 0 0
4:55 am 04:55 Clear 20 -6.4 19 -7.4 93 93 NW 6 9 30.31 1026 10 16.0934 0 0
5:15 am 05:15 Clear 23 -5.1 20 -6.4 91 91 N 7 11 30.3 1026 10 16.0934 0 0
5:35 am 05:35 Clear 24 -4.5 21 -6 89 89 N 7 11 30.3 1026 10 16.0934 0 0
5:55 am 05:55 Clear 24 -4.5 21 -6 89 89 N 8 13 30.31 1026 10 16.0934 0 0
6:15 am 06:15 Mostly Cloudy 24 -4.4 21 -5.9 89 89 N 15 24 30.33 1027 10 16.0934 0 0
6:35 am 06:35 Cloudy 23 -4.8 19 -7.3 83 83 N 14 22 30.34 1028 10 16.0934 0 0
6:55 am 06:55 Mostly Cloudy 22 -5.8 17 -8.5 81 81 NNE 12 19 30.36 1028 10 16.0934 0 0
7:15 am 07:15 Mostly Cloudy 21 -6 16 -9.1 79 79 NNE 13 20 30.37 1029 10 16.0934 0 0
7:35 am 07:35 Cloudy 21 -6 15 -9.3 78 78 N 14 22 30.38 1029 10 16.0934 0 0
7:55 am 07:55 Cloudy 21 -6.2 14 -9.8 76 76 N 12 19 30.4 1029 10 16.0934 0 0
8:15 am 08:15 Mostly Cloudy 20 -6.5 15 -9.7 78 78 N 12 19 30.41 1030 10 16.0934 0 0
8:35 am 08:35 Mostly Cloudy 20 -6.5 14 -9.9 77 77 N 10 17 30.42 1030 10 16.0934 0 0
8:55 am 08:55 Mostly Cloudy 20 -6.7 13 -10.5 75 75 N 12 19 30.43 1031 10 16.0934 0 0
9:15 am 09:15 Mostly Cloudy 20 -6.8 14 -10.1 78 78 N 8 13 30.44 1031 10 16.0934 0 0
9:35 am 09:35 Mostly Cloudy 20 -6.6 14 -10.1 76 76 N 12 19 30.45 1031 10 16.0934 0 0
9:55 am 09:55 Partly Cloudy 20 -6.5 14 -10 76 76 N 8 13 30.46 1031 10 16.0934 0 0
10:15 am 10:15 Sunny 20 -6.6 13 -10.3 75 75 N 10 17 30.46 1032 10 16.0934 0 0
10:35 am 10:35 Partly Cloudy 22 -5.8 15 -9.5 75 75 N 9 15 30.46 1032 10 16.0934 0 0
10:55 am 10:55 Partly Cloudy 23 -5.1 15 -9.4 72 72 NNE 6 9 30.45 1031 10 16.0934 0 0
11:15 am 11:15 Mostly Cloudy 23 -5.2 14 -9.8 70 70 N 6 9 30.45 1031 10 16.0934 0 0
11:35 am 11:35 Mostly Cloudy 22 -5.6 14 -10.1 71 71 N 6 9 30.45 1031 10 16.0934 0 0
11:55 am 11:55 Sunny 25 -4.1 15 -9.5 66 66 N 6 9 30.44 1031 10 16.0934 0 0
12:15 pm 12:15 Sunny 25 -3.8 15 -9.5 65 65 N 6 9 30.43 1031 10 16.0934 0 0
12:35 pm 12:35 Sunny 25 -4 14 -9.8 64 64 N 5 7 30.44 1031 10 16.0934 0 0
12:55 pm 12:55 Sunny 25 -3.7 15 -9.6 64 64 Calm 30.43 1031 10 16.0934 0 0
1:15 pm 13:15 Partly Cloudy 26 -3.6 15 -9.4 65 65 W 3 6 30.41 1030 10 16.0934 0 0
1:35 pm 13:35 Partly Cloudy 26 -3.5 15 -9.5 64 64 Calm 30.4 1029 10 16.0934 0 0
1:55 pm 13:55 Sunny 28 -2.5 16 -9 61 61 WSW 3 6 30.39 1029 10 16.0934 0 0
2:15 pm 14:15 Sunny 28 -2 17 -8.5 61 61 SW 5 7 30.39 1029 10 16.0934 0 0
2:35 pm 14:35 Sunny 28 -2 17 -8.5 61 61 SSW 6 9 30.37 1028 10 16.0934 0 0
2:55 pm 14:55 Sunny 29 -1.8 17 -8.3 62 62 SW 5 7 30.37 1029 10 16.0934 0 0
3:15 pm 15:15 Partly Cloudy 29 -1.6 18 -8 62 62 WSW 7 11 30.36 1028 10 16.0934 0 0
3:35 pm 15:35 Mostly Cloudy 29 -1.5 18 -7.8 63 63 SW 6 9 30.36 1028 10 16.0934 0 0
3:55 pm 15:55 Mostly Cloudy 28 -2 18 -8 64 64 SSW 8 13 30.36 1028 10 16.0934 0 0
4:15 pm 16:15 Mostly Cloudy 30 -1.3 19 -7.5 63 63 SSW 9 15 30.35 1028 10 16.0934 0 0
4:35 pm 16:35 Partly Cloudy 28 -2 19 -7.5 66 66 SSW 10 17 30.35 1028 10 16.0934 0 0
4:55 pm 16:55 Sunny 27 -2.7 19 -7.2 71 71 SSW 9 15 30.35 1028 10 16.0934 0 0
5:15 pm 17:15 Clear 26 -3.3 19 -7 76 76 SSW 8 13 30.37 1028 10 16.0934 0 0
5:35 pm 17:35 Clear 25 -3.8 19 -7 79 79 SSW 8 13 30.37 1029 10 16.0934 0 0
5:55 pm 17:55 Clear 24 -4.2 19 -7.3 79 79 SSW 8 13 30.38 1029 10 16.0934 0 0
6:15 pm 18:15 Clear 24 -4.5 18 -7.6 79 79 SSW 9 15 30.38 1029 10 16.0934 0 0
6:35 pm 18:35 Clear 24 -4.5 19 -7.3 81 81 SSW 7 11 30.38 1029 10 16.0934 0 0
6:55 pm 18:55 Clear 24 -4.6 20 -6.7 85 85 SSW 7 11 30.38 1029 10 16.0934 0 0
7:15 pm 19:15 Clear 24 -4.5 21 -6.2 88 88 SSW 10 17 30.38 1029 10 16.0934 0 0
7:35 pm 19:35 Clear 24 -4.5 21 -6 89 89 SSW 14 22 30.38 1029 10 16.0934 0 0
7:55 pm 19:55 Clear 24 -4.5 22 -5.7 91 91 SSW 13 20 30.38 1029 10 16.0934 0 0
8:15 pm 20:15 Clear 23 -4.8 22 -5.7 94 94 SSW 10 17 30.38 1029 10 16.0934 0 0
8:35 pm 20:35 Clear 24 -4.7 22 -5.4 95 95 SSW 13 20 30.38 1029 10 16.0934 0 0
8:55 pm 20:55 Mostly Cloudy 24 -4.5 23 -5 96 96 SW 10 17 30.38 1029 10 16.0934 0 0
9:15 pm 21:15 Cloudy 25 -4.1 24 -4.7 96 96 SSW 14 22 30.38 1029 10 16.0934 0 0
9:35 pm 21:35 Cloudy 26 -3.6 24 -4.5 94 94 SSW 13 20 30.36 1028 10 16.0934 0 0
9:55 pm 21:55 Cloudy 25 -3.7 24 -4.5 94 94 SW 10 17 30.36 1028 10 16.0934 0 0
10:15 pm 22:15 Mostly Cloudy 26 -3.5 24 -4.5 93 93 SSW 12 19 30.37 1028 10 16.0934 0 0
10:35 pm 22:35 Partly Cloudy 26 -3.5 24 -4.6 92 92 SSW 14 22 30.36 1028 10 16.0934 0 0
10:55 pm 22:55 Partly Cloudy 25 -3.8 23 -5 91 91 SSW 13 20 30.36 1028 10 16.0934 0 0
11:15 pm 23:15 Clear 25 -3.9 23 -5 92 92 SW 9 15 30.36 1028 10 16.0934 0 0
11:35 pm 23:35 Clear 26 -3.5 24 -4.7 92 92 SW 12 19 30.36 1028 10 16.0934 0 0
11:55 pm 23:55 Clear 27 -3 24 -4.6 89 89 SW 9 15 30.36 1028 10 16.0934 0 0

Powered by AerisWeather